owner,sensor,date,latitude,longitude,air_temperature,qcFlag 
COMPS,ioos:station:USF.COMPS:ANC:1,2009-02-01T01:00:00Z,28.1930,-82.7890,9.68,1111122 
COMPS,ioos:station:USF.COMPS:ANC:1,2009-02-01T01:06:00Z,28.1930,-82.7890,10.18,1111122 
COMPS,ioos:station:USF.COMPS:ANC:1,2009-02-01T01:12:00Z,28.1930,-82.7890,10.71,1111122 
COMPS,ioos:station:USF.COMPS:ANC:1,2009-02-01T01:18:00Z,28.1930,-82.7890,10.56,1111122 
COMPS,ioos:station:USF.COMPS:ANC:1,2009-02-01T01:24:00Z,28.1930,-82.7890,12.26,1111122 
COMPS,ioos:station:USF.COMPS:ANC:1,2009-02-01T01:30:00Z,28.1930,-82.7890,12.68,1111122 
COMPS,ioos:station:USF.COMPS:ANC:1,2009-02-01T01:36:00Z,28.1930,-82.7890,12.69,1111122 
COMPS,ioos:station:USF.COMPS:ANC:1,2009-02-01T01:42:00Z,28.1930,-82.7890,12.73,1111122 
COMPS,ioos:station:USF.COMPS:ANC:1,2009-02-01T01:48:00Z,28.1930,-82.7890,12.74,1111122 
COMPS,ioos:station:USF.COMPS:ANC:1,2009-02-01T01:54:00Z,28.1930,-82.7890,12.74,1111122 
COMPS,ioos:station:USF.COMPS:ANC:1,2009-02-01T02:00:00Z,28.1930,-82.7890,12.83,1111122 
COMPS,ioos:station:USF.COMPS:ANC:1,2009-02-01T02:06:00Z,28.1930,-82.7890,12.88,1111122 
COMPS,ioos:station:USF.COMPS:ANC:1,2009-02-01T02:12:00Z,28.1930,-82.7890,12.91,1111122 
COMPS,ioos:station:USF.COMPS:ANC:1,2009-02-01T02:18:00Z,28.1930,-82.7890,12.85,1111122 
COMPS,ioos:station:USF.COMPS:ANC:1,2009-02-01T02:24:00Z,28.1930,-82.7890,13.23,1111122 
COMPS,ioos:station:USF.COMPS:ANC:1,2009-02-01T02:30:00Z,28.1930,-82.7890,12.91,1111122 
COMPS,ioos:station:USF.COMPS:ANC:1,2009-02-01T02:36:00Z,28.1930,-82.7890,12.91,1111122 
COMPS,ioos:station:USF.COMPS:ANC:1,2009-02-01T02:42:00Z,28.1930,-82.7890,12.96,1111122 
COMPS,ioos:station:USF.COMPS:ANC:1,2009-02-01T02:48:00Z,28.1930,-82.7890,12.72,1111122 
COMPS,ioos:station:USF.COMPS:ANC:1,2009-02-01T02:54:00Z,28.1930,-82.7890,11.31,1111122 
COMPS,ioos:station:USF.COMPS:ANC:1,2009-02-01T03:00:00Z,28.1930,-82.7890,10.4,1111122 
COMPS,ioos:station:USF.COMPS:ANC:1,2009-02-01T03:06:00Z,28.1930,-82.7890,9.1,1111122 
COMPS,ioos:station:USF.COMPS:ANC:1,2009-02-01T03:12:00Z,28.1930,-82.7890,8.73,1111122 
COMPS,ioos:station:USF.COMPS:ANC:1,2009-02-01T03:18:00Z,28.1930,-82.7890,8.3,1111122 
COMPS,ioos:station:USF.COMPS:ANC:1,2009-02-01T03:24:00Z,28.1930,-82.7890,8.37,1111122 
COMPS,ioos:station:USF.COMPS:ANC:1,2009-02-01T03:30:00Z,28.1930,-82.7890,7.81,1111122 
COMPS,ioos:station:USF.COMPS:ANC:1,2009-02-01T03:36:00Z,28.1930,-82.7890,7.72,1111122 
COMPS,ioos:station:USF.COMPS:ANC:1,2009-02-01T03:42:00Z,28.1930,-82.7890,7.57,1111122 
COMPS,ioos:station:USF.COMPS:ANC:1,2009-02-01T03:48:00Z,28.1930,-82.7890,7.44,1111122 
COMPS,ioos:station:USF.COMPS:ANC:1,2009-02-01T03:54:00Z,28.1930,-82.7890,7.35,1111122 
COMPS,ioos:station:USF.COMPS:ANC:1,2009-02-01T04:00:00Z,28.1930,-82.7890,7.34,1111122 
COMPS,ioos:station:USF.COMPS:ANC:1,2009-02-01T04:06:00Z,28.1930,-82.7890,7.54,1111122 
COMPS,ioos:station:USF.COMPS:ANC:1,2009-02-01T04:12:00Z,28.1930,-82.7890,7.52,1111122 
COMPS,ioos:station:USF.COMPS:ANC:1,2009-02-01T04:18:00Z,28.1930,-82.7890,7.58,1111122 
COMPS,ioos:station:USF.COMPS:ANC:1,2009-02-01T04:24:00Z,28.1930,-82.7890,7.66,1111122 
COMPS,ioos:station:USF.COMPS:ANC:1,2009-02-01T04:30:00Z,28.1930,-82.7890,7.17,1111122 
COMPS,ioos:station:USF.COMPS:ANC:1,2009-02-01T04:36:00Z,28.1930,-82.7890,7.04,1111122 
COMPS,ioos:station:USF.COMPS:ANC:1,2009-02-01T04:42:00Z,28.1930,-82.7890,6.94,1111122 
COMPS,ioos:station:USF.COMPS:ANC:1,2009-02-01T04:48:00Z,28.1930,-82.7890,6.76,1111122 
COMPS,ioos:station:USF.COMPS:ANC:1,2009-02-01T04:54:00Z,28.1930,-82.7890,6.81,1111122 
COMPS,ioos:station:USF.COMPS:ANC:1,2009-02-01T05:00:00Z,28.1930,-82.7890,6.87,1111122 
COMPS,ioos:station:USF.COMPS:ANC:1,2009-02-01T05:06:00Z,28.1930,-82.7890,6.79,1111122 
COMPS,ioos:station:USF.COMPS:ANC:1,2009-02-01T05:12:00Z,28.1930,-82.7890,6.78,1111122 
COMPS,ioos:station:USF.COMPS:ANC:1,2009-02-01T05:18:00Z,28.1930,-82.7890,6.75,1111122 
COMPS,ioos:station:USF.COMPS:ANC:1,2009-02-01T05:24:00Z,28.1930,-82.7890,7.07,1111122 
COMPS,ioos:station:USF.COMPS:ANC:1,2009-02-01T05:30:00Z,28.1930,-82.7890,6.7,1111122 
COMPS,ioos:station:USF.COMPS:ANC:1,2009-02-01T05:36:00Z,28.1930,-82.7890,6.84,1111122 
COMPS,ioos:station:USF.COMPS:ANC:1,2009-02-01T05:42:00Z,28.1930,-82.7890,6.96,1111122 
COMPS,ioos:station:USF.COMPS:ANC:1,2009-02-01T05:48:00Z,28.1930,-82.7890,6.92,1111122 
COMPS,ioos:station:USF.COMPS:ANC:1,2009-02-01T05:54:00Z,28.1930,-82.7890,6.82,1111122 
COMPS,ioos:station:USF.COMPS:ANC:1,2009-02-01T06:00:00Z,28.1930,-82.7890,6.73,1111122 
COMPS,ioos:station:USF.COMPS:ANC:1,2009-02-01T06:06:00Z,28.1930,-82.7890,6.65,1111122 
COMPS,ioos:station:USF.COMPS:ANC:1,2009-02-01T06:12:00Z,28.1930,-82.7890,6.49,1111122 
COMPS,ioos:station:USF.COMPS:ANC:1,2009-02-01T06:18:00Z,28.1930,-82.7890,6.32,1111122 
COMPS,ioos:station:USF.COMPS:ANC:1,2009-02-01T06:24:00Z,28.1930,-82.7890,6.61,1111122 
COMPS,ioos:station:USF.COMPS:ANC:1,2009-02-01T06:30:00Z,28.1930,-82.7890,6.41,1111122 
COMPS,ioos:station:USF.COMPS:ANC:1,2009-02-01T06:36:00Z,28.1930,-82.7890,6.58,1111122 
COMPS,ioos:station:USF.COMPS:ANC:1,2009-02-01T06:42:00Z,28.1930,-82.7890,6.76,1111122 
COMPS,ioos:station:USF.COMPS:ANC:1,2009-02-01T06:48:00Z,28.1930,-82.7890,6.73,1111122 
COMPS,ioos:station:USF.COMPS:ANC:1,2009-02-01T06:54:00Z,28.1930,-82.7890,6.45,1111122 
COMPS,ioos:station:USF.COMPS:ANC:1,2009-02-01T07:00:00Z,28.1930,-82.7890,6.28,1111122 
COMPS,ioos:station:USF.COMPS:ANC:1,2009-02-01T07:06:00Z,28.1930,-82.7890,6.19,1111122 
COMPS,ioos:station:USF.COMPS:ANC:1,2009-02-01T07:12:00Z,28.1930,-82.7890,6.18,1111122 
COMPS,ioos:station:USF.COMPS:ANC:1,2009-02-01T07:18:00Z,28.1930,-82.7890,6.1,1111122 
COMPS,ioos:station:USF.COMPS:ANC:1,2009-02-01T07:24:00Z,28.1930,-82.7890,6.46,1111122 
COMPS,ioos:station:USF.COMPS:ANC:1,2009-02-01T07:30:00Z,28.1930,-82.7890,6.06,1111122 
COMPS,ioos:station:USF.COMPS:ANC:1,2009-02-01T07:36:00Z,28.1930,-82.7890,6.02,1111122 
COMPS,ioos:station:USF.COMPS:ANC:1,2009-02-01T07:42:00Z,28.1930,-82.7890,5.98,1111122 
COMPS,ioos:station:USF.COMPS:ANC:1,2009-02-01T07:48:00Z,28.1930,-82.7890,6.0,1111122 
COMPS,ioos:station:USF.COMPS:ANC:1,2009-02-01T07:54:00Z,28.1930,-82.7890,5.96,1111122 
COMPS,ioos:station:USF.COMPS:ANC:1,2009-02-01T08:00:00Z,28.1930,-82.7890,5.87,1111122 
COMPS,ioos:station:USF.COMPS:ANC:1,2009-02-01T08:06:00Z,28.1930,-82.7890,5.78,1111122 
COMPS,ioos:station:USF.COMPS:ANC:1,2009-02-01T08:12:00Z,28.1930,-82.7890,5.71,1111122 
COMPS,ioos:station:USF.COMPS:ANC:1,2009-02-01T08:18:00Z,28.1930,-82.7890,5.63,1111122 
COMPS,ioos:station:USF.COMPS:ANC:1,2009-02-01T08:24:00Z,28.1930,-82.7890,5.92,1111122 
COMPS,ioos:station:USF.COMPS:ANC:1,2009-02-01T08:30:00Z,28.1930,-82.7890,5.53,1111122 
COMPS,ioos:station:USF.COMPS:ANC:1,2009-02-01T08:36:00Z,28.1930,-82.7890,5.52,1111122 
COMPS,ioos:station:USF.COMPS:ANC:1,2009-02-01T08:42:00Z,28.1930,-82.7890,5.47,1111122 
COMPS,ioos:station:USF.COMPS:ANC:1,2009-02-01T08:48:00Z,28.1930,-82.7890,5.48,1111122 
COMPS,ioos:station:USF.COMPS:ANC:1,2009-02-01T08:54:00Z,28.1930,-82.7890,5.39,1111122 
COMPS,ioos:station:USF.COMPS:ANC:1,2009-02-01T09:00:00Z,28.1930,-82.7890,5.33,1111122 
COMPS,ioos:station:USF.COMPS:ANC:1,2009-02-01T09:06:00Z,28.1930,-82.7890,5.32,1111122 
COMPS,ioos:station:USF.COMPS:ANC:1,2009-02-01T09:12:00Z,28.1930,-82.7890,5.31,1111122 
COMPS,ioos:station:USF.COMPS:ANC:1,2009-02-01T09:18:00Z,28.1930,-82.7890,5.32,1111122 
COMPS,ioos:station:USF.COMPS:ANC:1,2009-02-01T09:24:00Z,28.1930,-82.7890,5.75,1111122 
COMPS,ioos:station:USF.COMPS:ANC:1,2009-02-01T09:30:00Z,28.1930,-82.7890,5.49,1111122 
COMPS,ioos:station:USF.COMPS:ANC:1,2009-02-01T09:36:00Z,28.1930,-82.7890,5.52,1111122 
COMPS,ioos:station:USF.COMPS:ANC:1,2009-02-01T09:42:00Z,28.1930,-82.7890,5.47,1111122 
COMPS,ioos:station:USF.COMPS:ANC:1,2009-02-01T09:48:00Z,28.1930,-82.7890,5.49,1111122 
COMPS,ioos:station:USF.COMPS:ANC:1,2009-02-01T09:54:00Z,28.1930,-82.7890,5.36,1111122 
COMPS,ioos:station:USF.COMPS:ANC:1,2009-02-01T10:00:00Z,28.1930,-82.7890,5.43,1111122 
COMPS,ioos:station:USF.COMPS:ANC:1,2009-02-01T10:06:00Z,28.1930,-82.7890,5.43,1111122 
COMPS,ioos:station:USF.COMPS:ANC:1,2009-02-01T10:12:00Z,28.1930,-82.7890,5.46,1111122 
COMPS,ioos:station:USF.COMPS:ANC:1,2009-02-01T10:18:00Z,28.1930,-82.7890,5.55,1111122 
COMPS,ioos:station:USF.COMPS:ANC:1,2009-02-01T10:24:00Z,28.1930,-82.7890,5.86,1111122 
COMPS,ioos:station:USF.COMPS:ANC:1,2009-02-01T10:30:00Z,28.1930,-82.7890,5.55,1111122 
COMPS,ioos:station:USF.COMPS:ANC:1,2009-02-01T10:36:00Z,28.1930,-82.7890,5.62,1111122 
COMPS,ioos:station:USF.COMPS:ANC:1,2009-02-01T10:42:00Z,28.1930,-82.7890,5.65,1111122 
COMPS,ioos:station:USF.COMPS:ANC:1,2009-02-01T10:48:00Z,28.1930,-82.7890,5.79,1111122 
COMPS,ioos:station:USF.COMPS:ANC:1,2009-02-01T10:54:00Z,28.1930,-82.7890,5.53,1111122 
COMPS,ioos:station:USF.COMPS:ANC:1,2009-02-01T11:00:00Z,28.1930,-82.7890,5.49,1111122 
COMPS,ioos:station:USF.COMPS:ANC:1,2009-02-01T11:06:00Z,28.1930,-82.7890,5.87,1111122 
COMPS,ioos:station:USF.COMPS:ANC:1,2009-02-01T11:12:00Z,28.1930,-82.7890,5.91,1111122 
COMPS,ioos:station:USF.COMPS:ANC:1,2009-02-01T11:18:00Z,28.1930,-82.7890,5.85,1111122 
COMPS,ioos:station:USF.COMPS:ANC:1,2009-02-01T11:24:00Z,28.1930,-82.7890,6.12,1111122 
COMPS,ioos:station:USF.COMPS:ANC:1,2009-02-01T11:30:00Z,28.1930,-82.7890,5.91,1111122 
COMPS,ioos:station:USF.COMPS:ANC:1,2009-02-01T11:36:00Z,28.1930,-82.7890,5.52,1111122 
COMPS,ioos:station:USF.COMPS:ANC:1,2009-02-01T11:42:00Z,28.1930,-82.7890,5.47,1111122 
COMPS,ioos:station:USF.COMPS:ANC:1,2009-02-01T11:48:00Z,28.1930,-82.7890,5.52,1111122 
COMPS,ioos:station:USF.COMPS:ANC:1,2009-02-01T11:54:00Z,28.1930,-82.7890,5.57,1111122 
COMPS,ioos:station:USF.COMPS:ANC:1,2009-02-01T12:00:00Z,28.1930,-82.7890,5.51,1111122 
COMPS,ioos:station:USF.COMPS:ANC:1,2009-02-01T12:06:00Z,28.1930,-82.7890,5.7,1111122 
COMPS,ioos:station:USF.COMPS:ANC:1,2009-02-01T12:12:00Z,28.1930,-82.7890,5.66,1111122 
COMPS,ioos:station:USF.COMPS:ANC:1,2009-02-01T12:18:00Z,28.1930,-82.7890,5.74,1111122 
COMPS,ioos:station:USF.COMPS:ANC:1,2009-02-01T12:24:00Z,28.1930,-82.7890,5.94,1111122 
COMPS,ioos:station:USF.COMPS:ANC:1,2009-02-01T12:30:00Z,28.1930,-82.7890,5.73,1111122 
COMPS,ioos:station:USF.COMPS:ANC:1,2009-02-01T12:36:00Z,28.1930,-82.7890,5.74,1111122 
COMPS,ioos:station:USF.COMPS:ANC:1,2009-02-01T12:42:00Z,28.1930,-82.7890,5.76,1111122 
COMPS,ioos:station:USF.COMPS:ANC:1,2009-02-01T12:48:00Z,28.1930,-82.7890,5.76,1111122 
COMPS,ioos:station:USF.COMPS:ANC:1,2009-02-01T12:54:00Z,28.1930,-82.7890,6.0,1111122 
COMPS,ioos:station:USF.COMPS:ANC:1,2009-02-01T13:00:00Z,28.1930,-82.7890,6.3,1111122 
COMPS,ioos:station:USF.COMPS:ANC:1,2009-02-01T13:06:00Z,28.1930,-82.7890,6.53,1111122 
COMPS,ioos:station:USF.COMPS:ANC:1,2009-02-01T13:12:00Z,28.1930,-82.7890,6.84,1111122 
COMPS,ioos:station:USF.COMPS:ANC:1,2009-02-01T13:18:00Z,28.1930,-82.7890,6.96,1111122 
COMPS,ioos:station:USF.COMPS:ANC:1,2009-02-01T13:24:00Z,28.1930,-82.7890,7.4,1111122 
COMPS,ioos:station:USF.COMPS:ANC:1,2009-02-01T13:30:00Z,28.1930,-82.7890,7.35,1111122 
COMPS,ioos:station:USF.COMPS:ANC:1,2009-02-01T13:36:00Z,28.1930,-82.7890,7.56,1111122 
COMPS,ioos:station:USF.COMPS:ANC:1,2009-02-01T13:42:00Z,28.1930,-82.7890,7.83,1111122 
COMPS,ioos:station:USF.COMPS:ANC:1,2009-02-01T13:48:00Z,28.1930,-82.7890,8.71,1111122 
COMPS,ioos:station:USF.COMPS:ANC:1,2009-02-01T13:54:00Z,28.1930,-82.7890,9.28,1111122 
COMPS,ioos:station:USF.COMPS:ANC:1,2009-02-01T14:00:00Z,28.1930,-82.7890,9.55,1111122 
COMPS,ioos:station:USF.COMPS:ANC:1,2009-02-01T14:06:00Z,28.1930,-82.7890,10.28,1111122 
COMPS,ioos:station:USF.COMPS:ANC:1,2009-02-01T14:12:00Z,28.1930,-82.7890,11.17,1111122 
COMPS,ioos:station:USF.COMPS:ANC:1,2009-02-01T14:18:00Z,28.1930,-82.7890,11.67,1111122 
COMPS,ioos:station:USF.COMPS:ANC:1,2009-02-01T14:24:00Z,28.1930,-82.7890,12.07,1111122 
COMPS,ioos:station:USF.COMPS:ANC:1,2009-02-01T14:30:00Z,28.1930,-82.7890,11.93,1111122 
COMPS,ioos:station:USF.COMPS:ANC:1,2009-02-01T14:36:00Z,28.1930,-82.7890,12.19,1111122 
COMPS,ioos:station:USF.COMPS:ANC:1,2009-02-01T14:42:00Z,28.1930,-82.7890,12.16,1111122 
COMPS,ioos:station:USF.COMPS:ANC:1,2009-02-01T14:48:00Z,28.1930,-82.7890,12.33,1111122 
COMPS,ioos:station:USF.COMPS:ANC:1,2009-02-01T14:54:00Z,28.1930,-82.7890,12.43,1111122 
COMPS,ioos:station:USF.COMPS:ANC:1,2009-02-01T15:00:00Z,28.1930,-82.7890,12.72,1111122 
COMPS,ioos:station:USF.COMPS:ANC:1,2009-02-01T15:06:00Z,28.1930,-82.7890,13.2,1111122 
COMPS,ioos:station:USF.COMPS:ANC:1,2009-02-01T15:12:00Z,28.1930,-82.7890,13.23,1111122 
COMPS,ioos:station:USF.COMPS:ANC:1,2009-02-01T15:18:00Z,28.1930,-82.7890,13.39,1111122 
COMPS,ioos:station:USF.COMPS:ANC:1,2009-02-01T15:24:00Z,28.1930,-82.7890,13.91,1111122 
COMPS,ioos:station:USF.COMPS:ANC:1,2009-02-01T15:30:00Z,28.1930,-82.7890,13.8,1111122 
COMPS,ioos:station:USF.COMPS:ANC:1,2009-02-01T15:36:00Z,28.1930,-82.7890,13.95,1111122 
COMPS,ioos:station:USF.COMPS:ANC:1,2009-02-01T15:42:00Z,28.1930,-82.7890,14.11,1111122 
COMPS,ioos:station:USF.COMPS:ANC:1,2009-02-01T15:48:00Z,28.1930,-82.7890,14.45,1111122 
COMPS,ioos:station:USF.COMPS:ANC:1,2009-02-01T15:54:00Z,28.1930,-82.7890,14.54,1111122 
COMPS,ioos:station:USF.COMPS:ANC:1,2009-02-01T17:00:00Z,28.1930,-82.7890,16.34,1111122 
COMPS,ioos:station:USF.COMPS:ANC:1,2009-02-01T17:06:00Z,28.1930,-82.7890,16.26,1111122 
COMPS,ioos:station:USF.COMPS:ANC:1,2009-02-01T17:12:00Z,28.1930,-82.7890,16.57,1111122 
COMPS,ioos:station:USF.COMPS:ANC:1,2009-02-01T17:18:00Z,28.1930,-82.7890,16.48,1111122 
COMPS,ioos:station:USF.COMPS:ANC:1,2009-02-01T17:24:00Z,28.1930,-82.7890,16.64,1111122 
COMPS,ioos:station:USF.COMPS:ANC:1,2009-02-01T17:30:00Z,28.1930,-82.7890,16.82,1111122 
COMPS,ioos:station:USF.COMPS:ANC:1,2009-02-01T17:36:00Z,28.1930,-82.7890,16.85,1111122 
COMPS,ioos:station:USF.COMPS:ANC:1,2009-02-01T17:42:00Z,28.1930,-82.7890,17.03,1111122 
COMPS,ioos:station:USF.COMPS:ANC:1,2009-02-01T17:48:00Z,28.1930,-82.7890,17.21,1111122 
COMPS,ioos:station:USF.COMPS:ANC:1,2009-02-01T17:54:00Z,28.1930,-82.7890,16.99,1111122 
COMPS,ioos:station:USF.COMPS:ANC:1,2009-02-01T18:00:00Z,28.1930,-82.7890,17.47,1111122 
COMPS,ioos:station:USF.COMPS:ANC:1,2009-02-01T18:06:00Z,28.1930,-82.7890,17.56,1111122 
COMPS,ioos:station:USF.COMPS:ANC:1,2009-02-01T18:12:00Z,28.1930,-82.7890,17.53,1111122 
COMPS,ioos:station:USF.COMPS:ANC:1,2009-02-01T18:18:00Z,28.1930,-82.7890,17.11,1111122 
COMPS,ioos:station:USF.COMPS:ANC:1,2009-02-01T18:24:00Z,28.1930,-82.7890,16.02,1111122 
COMPS,ioos:station:USF.COMPS:ANC:1,2009-02-01T18:30:00Z,28.1930,-82.7890,15.61,1111122 
COMPS,ioos:station:USF.COMPS:ANC:1,2009-02-01T18:36:00Z,28.1930,-82.7890,15.63,1111122 
COMPS,ioos:station:USF.COMPS:ANC:1,2009-02-01T18:42:00Z,28.1930,-82.7890,15.56,1111122 
COMPS,ioos:station:USF.COMPS:ANC:1,2009-02-01T18:48:00Z,28.1930,-82.7890,15.69,1111122 
COMPS,ioos:station:USF.COMPS:ANC:1,2009-02-01T18:54:00Z,28.1930,-82.7890,15.37,1111122 
COMPS,ioos:station:USF.COMPS:ANC:1,2009-02-01T19:00:00Z,28.1930,-82.7890,15.25,1111122 
COMPS,ioos:station:USF.COMPS:ANC:1,2009-02-01T19:06:00Z,28.1930,-82.7890,15.68,1111122 
COMPS,ioos:station:USF.COMPS:ANC:1,2009-02-01T19:12:00Z,28.1930,-82.7890,15.93,1111122 
COMPS,ioos:station:USF.COMPS:ANC:1,2009-02-01T19:18:00Z,28.1930,-82.7890,16.02,1111122 
COMPS,ioos:station:USF.COMPS:ANC:1,2009-02-01T19:24:00Z,28.1930,-82.7890,16.36,1111122 
COMPS,ioos:station:USF.COMPS:ANC:1,2009-02-01T19:30:00Z,28.1930,-82.7890,16.05,1111122 
COMPS,ioos:station:USF.COMPS:ANC:1,2009-02-01T19:36:00Z,28.1930,-82.7890,15.99,1111122 
COMPS,ioos:station:USF.COMPS:ANC:1,2009-02-01T19:42:00Z,28.1930,-82.7890,15.93,1111122 
COMPS,ioos:station:USF.COMPS:ANC:1,2009-02-01T19:48:00Z,28.1930,-82.7890,15.97,1111122 
COMPS,ioos:station:USF.COMPS:ANC:1,2009-02-01T19:54:00Z,28.1930,-82.7890,16.09,1111122 
COMPS,ioos:station:USF.COMPS:ANC:1,2009-02-01T20:00:00Z,28.1930,-82.7890,16.14,1111122 
COMPS,ioos:station:USF.COMPS:ANC:1,2009-02-01T20:06:00Z,28.1930,-82.7890,15.97,1111122 
COMPS,ioos:station:USF.COMPS:ANC:1,2009-02-01T20:12:00Z,28.1930,-82.7890,15.9,1111122 
COMPS,ioos:station:USF.COMPS:ANC:1,2009-02-01T20:18:00Z,28.1930,-82.7890,15.99,1111122 
COMPS,ioos:station:USF.COMPS:ANC:1,2009-02-01T20:24:00Z,28.1930,-82.7890,16.27,1111122 
COMPS,ioos:station:USF.COMPS:ANC:1,2009-02-01T20:30:00Z,28.1930,-82.7890,16.11,1111122 
COMPS,ioos:station:USF.COMPS:ANC:1,2009-02-01T20:36:00Z,28.1930,-82.7890,16.19,1111122 
COMPS,ioos:station:USF.COMPS:ANC:1,2009-02-01T20:42:00Z,28.1930,-82.7890,16.57,1111122 
COMPS,ioos:station:USF.COMPS:ANC:1,2009-02-01T20:48:00Z,28.1930,-82.7890,16.87,1111122 
COMPS,ioos:station:USF.COMPS:ANC:1,2009-02-01T20:54:00Z,28.1930,-82.7890,17.07,1111122 
COMPS,ioos:station:USF.COMPS:ANC:1,2009-02-01T21:00:00Z,28.1930,-82.7890,16.98,1111122 
COMPS,ioos:station:USF.COMPS:ANC:1,2009-02-01T21:06:00Z,28.1930,-82.7890,16.38,1111122 
COMPS,ioos:station:USF.COMPS:ANC:1,2009-02-01T21:12:00Z,28.1930,-82.7890,16.58,1111122 
COMPS,ioos:station:USF.COMPS:ANC:1,2009-02-01T21:18:00Z,28.1930,-82.7890,17.05,1111122 
COMPS,ioos:station:USF.COMPS:ANC:1,2009-02-01T21:24:00Z,28.1930,-82.7890,17.49,1111122 
COMPS,ioos:station:USF.COMPS:ANC:1,2009-02-01T21:30:00Z,28.1930,-82.7890,17.39,1111122 
COMPS,ioos:station:USF.COMPS:ANC:1,2009-02-01T21:36:00Z,28.1930,-82.7890,17.82,1111122 
COMPS,ioos:station:USF.COMPS:ANC:1,2009-02-01T21:42:00Z,28.1930,-82.7890,18.48,1111122 
COMPS,ioos:station:USF.COMPS:ANC:1,2009-02-01T21:48:00Z,28.1930,-82.7890,18.63,1111122 
COMPS,ioos:station:USF.COMPS:ANC:1,2009-02-01T21:54:00Z,28.1930,-82.7890,18.6,1111122 
COMPS,ioos:station:USF.COMPS:ANC:1,2009-02-01T22:00:00Z,28.1930,-82.7890,18.3,1111122 
COMPS,ioos:station:USF.COMPS:ANC:1,2009-02-01T22:06:00Z,28.1930,-82.7890,15.67,1111122 
COMPS,ioos:station:USF.COMPS:ANC:1,2009-02-01T22:12:00Z,28.1930,-82.7890,15.43,1111122 
COMPS,ioos:station:USF.COMPS:ANC:1,2009-02-01T22:18:00Z,28.1930,-82.7890,15.4,1111122 
COMPS,ioos:station:USF.COMPS:ANC:1,2009-02-01T22:24:00Z,28.1930,-82.7890,15.7,1111122 
COMPS,ioos:station:USF.COMPS:ANC:1,2009-02-01T22:30:00Z,28.1930,-82.7890,15.35,1111122 
COMPS,ioos:station:USF.COMPS:ANC:1,2009-02-01T22:36:00Z,28.1930,-82.7890,15.38,1111122 
COMPS,ioos:station:USF.COMPS:ANC:1,2009-02-01T22:42:00Z,28.1930,-82.7890,15.49,1111122 
COMPS,ioos:station:USF.COMPS:ANC:1,2009-02-01T22:48:00Z,28.1930,-82.7890,15.57,1111122 
COMPS,ioos:station:USF.COMPS:ANC:1,2009-02-01T22:54:00Z,28.1930,-82.7890,15.53,1111122 
COMPS,ioos:station:USF.COMPS:ANC:1,2009-02-01T23:00:00Z,28.1930,-82.7890,15.47,1111122 
COMPS,ioos:station:USF.COMPS:ANC:1,2009-02-01T23:06:00Z,28.1930,-82.7890,15.52,1111122 
COMPS,ioos:station:USF.COMPS:ANC:1,2009-02-01T23:12:00Z,28.1930,-82.7890,15.63,1111122 
COMPS,ioos:station:USF.COMPS:ANC:1,2009-02-01T23:18:00Z,28.1930,-82.7890,15.79,1111122 
COMPS,ioos:station:USF.COMPS:ANC:1,2009-02-01T23:24:00Z,28.1930,-82.7890,16.09,1111122 
COMPS,ioos:station:USF.COMPS:ANC:1,2009-02-01T23:30:00Z,28.1930,-82.7890,15.89,1111122 
COMPS,ioos:station:USF.COMPS:ANC:1,2009-02-01T23:36:00Z,28.1930,-82.7890,15.9,1111122 
COMPS,ioos:station:USF.COMPS:ANC:1,2009-02-01T23:42:00Z,28.1930,-82.7890,15.89,1111122 
COMPS,ioos:station:USF.COMPS:ANC:1,2009-02-01T23:48:00Z,28.1930,-82.7890,15.77,1111122 
COMPS,ioos:station:USF.COMPS:ANC:1,2009-02-01T23:54:00Z,28.1930,-82.7890,15.76,1111122 
COMPS,ioos:station:USF.COMPS:ANC:1,2009-02-02T00:00:00Z,28.1930,-82.7890,15.82,1111122 
COMPS,ioos:station:USF.COMPS:ANC:1,2009-02-02T00:06:00Z,28.1930,-82.7890,15.83,1111122 
COMPS,ioos:station:USF.COMPS:ANC:1,2009-02-02T00:12:00Z,28.1930,-82.7890,15.69,1111122 
COMPS,ioos:station:USF.COMPS:ANC:1,2009-02-02T00:18:00Z,28.1930,-82.7890,15.52,1111122 
COMPS,ioos:station:USF.COMPS:ANC:1,2009-02-02T00:24:00Z,28.1930,-82.7890,15.64,1111122 
COMPS,ioos:station:USF.COMPS:ANC:1,2009-02-02T00:30:00Z,28.1930,-82.7890,15.26,1111122 
COMPS,ioos:station:USF.COMPS:ANC:1,2009-02-02T00:36:00Z,28.1930,-82.7890,15.2,1111122 
COMPS,ioos:station:USF.COMPS:ANC:1,2009-02-02T00:42:00Z,28.1930,-82.7890,15.12,1111122 
COMPS,ioos:station:USF.COMPS:ANC:1,2009-02-02T00:48:00Z,28.1930,-82.7890,15.12,1111122 
COMPS,ioos:station:USF.COMPS:ANC:1,2009-02-02T00:54:00Z,28.1930,-82.7890,15.13,1111122 
COMPS,ioos:station:USF.COMPS:ANC:1,2009-02-02T01:00:00Z,28.1930,-82.7890,15.2,1111122 
COMPS,ioos:station:USF.COMPS:ANC:1,2009-02-02T01:06:00Z,28.1930,-82.7890,15.17,1111122 
COMPS,ioos:station:USF.COMPS:ANC:1,2009-02-02T01:12:00Z,28.1930,-82.7890,15.11,1111122 
COMPS,ioos:station:USF.COMPS:ANC:1,2009-02-02T01:18:00Z,28.1930,-82.7890,15.15,1111122 
COMPS,ioos:station:USF.COMPS:ANC:1,2009-02-02T01:24:00Z,28.1930,-82.7890,15.46,1111122 
COMPS,ioos:station:USF.COMPS:ANC:1,2009-02-02T01:30:00Z,28.1930,-82.7890,15.25,1111122 
COMPS,ioos:station:USF.COMPS:ANC:1,2009-02-02T01:36:00Z,28.1930,-82.7890,15.33,1111122 
COMPS,ioos:station:USF.COMPS:ANC:1,2009-02-02T01:42:00Z,28.1930,-82.7890,15.37,1111122 
COMPS,ioos:station:USF.COMPS:ANC:1,2009-02-02T01:48:00Z,28.1930,-82.7890,15.33,1111122 
COMPS,ioos:station:USF.COMPS:ANC:1,2009-02-02T01:54:00Z,28.1930,-82.7890,15.34,1111122 
COMPS,ioos:station:USF.COMPS:ANC:1,2009-02-02T02:00:00Z,28.1930,-82.7890,15.41,1111122 
COMPS,ioos:station:USF.COMPS:ANC:1,2009-02-02T02:06:00Z,28.1930,-82.7890,15.43,1111122 
COMPS,ioos:station:USF.COMPS:ANC:1,2009-02-02T02:12:00Z,28.1930,-82.7890,15.48,1111122 
COMPS,ioos:station:USF.COMPS:ANC:1,2009-02-02T02:18:00Z,28.1930,-82.7890,15.47,1111122 
COMPS,ioos:station:USF.COMPS:ANC:1,2009-02-02T02:24:00Z,28.1930,-82.7890,15.73,1111122 
COMPS,ioos:station:USF.COMPS:ANC:1,2009-02-02T02:30:00Z,28.1930,-82.7890,15.46,1111122 
COMPS,ioos:station:USF.COMPS:ANC:1,2009-02-02T02:36:00Z,28.1930,-82.7890,15.41,1111122 
COMPS,ioos:station:USF.COMPS:ANC:1,2009-02-02T02:42:00Z,28.1930,-82.7890,15.39,1111122 
COMPS,ioos:station:USF.COMPS:ANC:1,2009-02-02T02:48:00Z,28.1930,-82.7890,15.35,1111122 
COMPS,ioos:station:USF.COMPS:ANC:1,2009-02-02T02:54:00Z,28.1930,-82.7890,15.27,1111122 
COMPS,ioos:station:USF.COMPS:ANC:1,2009-02-02T03:00:00Z,28.1930,-82.7890,15.21,1111122 
COMPS,ioos:station:USF.COMPS:ANC:1,2009-02-02T03:06:00Z,28.1930,-82.7890,15.22,1111122 
COMPS,ioos:station:USF.COMPS:ANC:1,2009-02-02T03:12:00Z,28.1930,-82.7890,15.27,1111122 
COMPS,ioos:station:USF.COMPS:ANC:1,2009-02-02T03:18:00Z,28.1930,-82.7890,15.34,1111122 
COMPS,ioos:station:USF.COMPS:ANC:1,2009-02-02T03:24:00Z,28.1930,-82.7890,15.61,1111122 
COMPS,ioos:station:USF.COMPS:ANC:1,2009-02-02T03:30:00Z,28.1930,-82.7890,15.33,1111122 
COMPS,ioos:station:USF.COMPS:ANC:1,2009-02-02T03:36:00Z,28.1930,-82.7890,15.31,1111122 
COMPS,ioos:station:USF.COMPS:ANC:1,2009-02-02T03:42:00Z,28.1930,-82.7890,15.3,1111122 
COMPS,ioos:station:USF.COMPS:ANC:1,2009-02-02T03:48:00Z,28.1930,-82.7890,15.29,1111122 
COMPS,ioos:station:USF.COMPS:ANC:1,2009-02-02T03:54:00Z,28.1930,-82.7890,15.26,1111122 
COMPS,ioos:station:USF.COMPS:ANC:1,2009-02-02T04:00:00Z,28.1930,-82.7890,15.2,1111122 
COMPS,ioos:station:USF.COMPS:ANC:1,2009-02-02T04:06:00Z,28.1930,-82.7890,15.19,1111122 
COMPS,ioos:station:USF.COMPS:ANC:1,2009-02-02T04:12:00Z,28.1930,-82.7890,15.15,1111122 
COMPS,ioos:station:USF.COMPS:ANC:1,2009-02-02T04:18:00Z,28.1930,-82.7890,15.12,1111122 
COMPS,ioos:station:USF.COMPS:ANC:1,2009-02-02T04:24:00Z,28.1930,-82.7890,15.34,1111122 
COMPS,ioos:station:USF.COMPS:ANC:1,2009-02-02T04:30:00Z,28.1930,-82.7890,15.06,1111122 
COMPS,ioos:station:USF.COMPS:ANC:1,2009-02-02T04:36:00Z,28.1930,-82.7890,15.02,1111122 
COMPS,ioos:station:USF.COMPS:ANC:1,2009-02-02T04:42:00Z,28.1930,-82.7890,15.04,1111122 
COMPS,ioos:station:USF.COMPS:ANC:1,2009-02-02T04:48:00Z,28.1930,-82.7890,15.1,1111122 
COMPS,ioos:station:USF.COMPS:ANC:1,2009-02-02T04:54:00Z,28.1930,-82.7890,15.11,1111122 
COMPS,ioos:station:USF.COMPS:ANC:1,2009-02-02T05:00:00Z,28.1930,-82.7890,15.11,1111122 
COMPS,ioos:station:USF.COMPS:ANC:1,2009-02-02T05:06:00Z,28.1930,-82.7890,15.06,1111122 
COMPS,ioos:station:USF.COMPS:ANC:1,2009-02-02T05:12:00Z,28.1930,-82.7890,15.08,1111122 